Location: M?digepalle
(16.1753°N, 80.3496°E)
Time: 08:49:31
(UTC+00:00)

ERS-2 - Pass Details

Date: 29 October 2020
Orbit: 493 x 497 km, 98.6° (Epoch: 27 November)

Event Time Altitude Azimuth Distance (km) Brightness Sun altitude
Rises 23:00:08 0° 145° (SE) 2,568 6.4 -23.2°
Reaches altitude 10° 23:02:26 10° 132° (SE) 1,686 5.6 -22.6°
Maximum altitude 23:05:28 26° 75° (ENE) 1,014 4.3 -21.9°
Drops below altitude 10° 23:08:30 10° 18° (NNE) 1,686 4.9 -21.2°
Sets 23:10:48 0° 5° (N) 2,567 5.7 -20.7°
